DELTA 1 DEB, 40761

Orbit data source: Space-Track

DELTA 1 DEB, 40761 is space debris in SSO originally from a launch on Thu, 29 Jul 1976 UTC launched from the Air Force Western Test Range (AFWTR). Debris objects in space refer to the collection of defunct objects orbiting the Earth. Examples of debris include non-operational satellites, rocket bodies, and fragments generated from explosions, collisions, or faulty payload assembly.

Loading next visibility...
Identifier
40761, 1976-077GE
Orbit
SSO
Country
Flag of USUS
Related business
Manufacturer
Unknown
Mission
Spacecraft
Bus & Motor
Unknown
Mass
Unknown
Launch date (UTC)
1976-07-29 (49 years ago)
Launch vehicle
Unknown
Launch site
Air Force Western Test Range (AFWTR)
Object type
Payload
Rocket body
Debris
Shape & HBR
Unknown shape, 0.1 m
Radar Cross Section
Small (<0.1 m²)

Expand to show TLE details & history
Last TLE update: 2 months ago

TLE from 2 months ago
0 DELTA 1 DEB
1 40761U 76077GE  25319.78382229  .00000264  00000-0  31587-2 0  9994
2 40761 102.4847 246.5062 0179775   1.0199 359.1183 12.11094061320298
Epoch: 2025-11-15T18:48Z
TLE epoch observation values (Epoch: 2025-11-15T18:48:42.245Z)
Latitude
-0.00001°
Longitude
-90.77782°
Altitude
1,490.062 km
Speed
7.183 km/s
True Right ascension
16h 26m 01s
True Declination
0° 00' 00"
Sunlit
Object was in daylight at epoch
Visualization orbit readout
Latitude
Unknown
Longitude
Unknown
Altitude
Unknown
Speed
Unknown
Apparent Right ascension
Unknown
Apparent Declination
Unknown
Sunlit
N/A
Visualization observer readout
Local Sidereal Time
20:49:41
Azimuth
Unknown
Elevation
Unknown
Doppler factor
Unknown
Orbital elements
Apogee altitude
1,773.162 km
Perigee altitude
1,485.258 km
Semi-major axis
8,007.347 km
Eccentricity
0.01798
Inclination
102.4847°
RAAN
246.5062°
Arg. of periapsis
1.0199°
True anomaly
359.08587°
Mean anomaly
359.1183°
Eccentric anomaly
359.10216°
Mean motion
3.02908 °/min
Orbital period
118.85 mins
BSTAR
0.0031587
Loading maneuver chart data...
Computing Atmospheric mass density...
Loading historical data...
Loading historical data...
Loading historical data...
Loading historical data...
Loading historical data...
Loading historical data...
Loading historical data...

Documentation

Showing up to 5 results
|